STARLINK-32528, 61724

Orbit data source: Space-Track

STARLINK-32528, 61724 is a payload satellite owned by SpaceX/Seattle (US) in LEO that was launched on Wed, 30 Oct 2024 UTC via an FALCON 9 launch vehicle from the Air Force Eastern Test Range (AFETR). Payload-class satellites include a variety of spacecraft equipped with specific instruments for various scientific and technological missions. These include communications satellites like Starlink; space stations such as the ISS; scientific satellites like the Hubble; Earth observation satellites from companies like Planet Labs, Umbra, and HawkEye 360; GPS; miniature CubeSats for education and research; and military/defense satellites.

Loading next visibility...
Identifier
61724, 2024-196T
Orbit
LEO
Country
Flag of USUS
Related business
Manufacturer
SpaceX/Seattle
Mission
Operational Commercial Communications
Bus & Motor
STARLINK V2M, Unknown motor
Mass
730 kg wet, ~700 kg dry
Launch date (UTC)
2024-10-30 (1 year ago)
Launch vehicle
FALCON 9
Launch site
Air Force Eastern Test Range (AFETR)
Object type
Payload
Rocket body
Debris
Shape & HBR
Box + 2 Pan, 17.7 m
Radar Cross Section
33.884 m², Large (>1 m²)

Expand to show TLE details & history
Last TLE update: 2 days ago

TLE from 2 days ago
0 STARLINK-32528
1 61724U 24196T   25306.40393920  .00001760  00000-0  71555-4 0  9999
2 61724  53.1612 332.9213 0001295  79.4606 280.6540 15.30190070 56464
Epoch: 2025-11-02T09:41Z
TLE epoch observation values (Epoch: 2025-11-02T09:41:40.346Z)
Latitude
-0.00009°
Longitude
145.58297°
Altitude
475.981 km
Speed
7.629 km/s
True Right ascension
22h 11m 41s
True Declination
0° 00' 00"
Sunlit
Object was in full shadow at epoch
Visualization orbit readout
Latitude
Unknown
Longitude
Unknown
Altitude
Unknown
Speed
Unknown
Apparent Right ascension
Unknown
Apparent Declination
Unknown
Sunlit
N/A
Visualization observer readout
Local Sidereal Time
17:40:30
Azimuth
Unknown
Elevation
Unknown
Doppler factor
Unknown
Orbital elements
Apogee altitude
476.389 km
Perigee altitude
474.613 km
Semi-major axis
6,853.638 km
Eccentricity
0.00013
Inclination
53.1612°
RAAN
332.9213°
Arg. of periapsis
79.4606°
True anomaly
280.63942°
Mean anomaly
280.654°
Eccentric anomaly
280.64671°
Mean motion
3.82526 °/min
Orbital period
94.11 mins
BSTAR
0.000071555
Loading maneuver chart data...
Computing Atmospheric mass density...
Loading historical data...
Loading historical data...
Loading historical data...
Loading historical data...
Loading historical data...
Loading historical data...
Loading historical data...

Documentation

Showing up to 5 results
|